Location: *
(31.2983°S, 151.4094°E)
Time: 10:20:14
(UTC+00:00)

Cosmos 2297 - Pass Details

Date: 28 November 2019
Orbit: 835 x 859 km, 71.0° (Epoch: 14 December)

Event Time Altitude Azimuth Distance (km) Brightness Sun altitude
Exits shadow 14:35:06 12° 234° (SW) 2,333 6.2 -35.9°
Drops below altitude 10° 14:37:00 10° 214° (SW) 2,469 6.5 -35.8°
Sets 14:41:20 0° 183° (S) 3,413 7.7 -35.5°
